| time (UTC) | temp F | wind direction | speed knots | gust knots | rain 1hr in | rain 24hr in | rain mn in | humidity % | barometer mb |
| 20260510180143 | 80 | 245 | 0.9 | 0.9 | 0.00 | 0.01 | 0.01 | 65 | 1015.2 |
| 20260510175639 | 80 | 233 | 1.7 | 2.6 | 0.00 | 0.01 | 0.01 | 65 | 1015.6 |
| 20260510175134 | 80 | 146 | 0.0 | 1.7 | 0.00 | 0.01 | 0.01 | 93 | 1015.6 |
| 20260510174632 | 80 | 215 | 0.0 | 0.9 | 0.00 | 0.01 | 0.01 | 99 | 1015.6 |
| 20260510174130 | 78 | 278 | 0.0 | 2.6 | 0.00 | 0.01 | 0.01 | 99 | 1015.6 |
| 20260510173625 | 78 | 158 | 0.0 | 0.9 | 0.00 | 0.01 | 0.01 | 99 | 1015.6 |
| 20260510173122 | 78 | 181 | 0.0 | 0.9 | 0.00 | 0.01 | 0.01 | 99 | 1015.6 |
| 20260510172617 | 79 | 58 | 0.9 | 1.7 | 0.00 | 0.01 | 0.01 | 99 | 1015.6 |
| 20260510172114 | 80 | 184 | 0.9 | 1.7 | 0.00 | 0.01 | 0.01 | 99 | 1015.6 |
| 20260510171610 | 78 | 218 | 0.9 | 1.7 | 0.00 | 0.01 | 0.01 | 99 | 1015.9 |
| 20260510171108 | 79 | 251 | 1.7 | 2.6 | 0.00 | 0.01 | 0.01 | 99 | 1015.6 |
| 20260510170604 | 79 | 232 | 0.9 | 0.9 | 0.00 | 0.01 | 0.01 | 99 | 1015.9 |
| 20260510170101 | 79 | 123 | 0.0 | 0.9 | 0.00 | 0.01 | 0.01 | 99 | 1015.9 |
| 20260510165556 | 79 | 314 | 0.0 | 1.7 | 0.00 | 0.01 | 0.01 | 99 | 1015.9 |
| 20260510165053 | 77 | 218 | 0.0 | 1.7 | 0.00 | 0.01 | 0.01 | 99 | 1016.3 |
| 20260510164550 | 79 | 233 | 0.9 | 1.7 | 0.00 | 0.01 | 0.01 | 99 | 1015.9 |
| 20260510164047 | 79 | 278 | 0.0 | 0.0 | 0.00 | 0.01 | 0.01 | 99 | 1015.9 |
| 20260510163542 | 79 | 240 | 0.0 | 0.9 | 0.00 | 0.01 | 0.01 | 99 | 1015.9 |
| 20260510163039 | 78 | 227 | 0.0 | 1.7 | 0.00 | 0.01 | 0.01 | 99 | 1015.6 |
| 20260510162533 | 79 | 38 | 0.9 | 0.9 | 0.00 | 0.01 | 0.01 | 99 | 1015.9 |
| 20260510162031 | 78 | 52 | 0.0 | 1.7 | 0.00 | 0.01 | 0.01 | 99 | 1016.3 |
| 20260510161526 | 78 | 164 | 0.0 | 0.9 | 0.00 | 0.01 | 0.01 | 99 | 1015.9 |
| 20260510161023 | 78 | 120 | 0.0 | 0.9 | 0.00 | 0.01 | 0.01 | 99 | 1016.3 |
| 20260510160520 | 78 | 238 | 0.9 | 0.9 | 0.00 | 0.01 | 0.01 | 99 | 1016.3 |
| 20260510160020 | 78 | 92 | 0.9 | 0.9 | 0.00 | 0.01 | 0.01 | 99 | 1015.9 |
| 20260510155516 | 77 | 182 | 0.0 | 1.7 | 0.00 | 0.01 | 0.01 | 99 | 1015.9 |
| 20260510155013 | 77 | 176 | 1.7 | 1.7 | 0.00 | 0.01 | 0.01 | 99 | 1015.6 |
| 20260510154509 | 76 | 172 | 0.0 | 1.7 | 0.00 | 0.01 | 0.01 | 99 | 1015.6 |
| 20260510154008 | 76 | 27 | 0.0 | 0.9 | 0.00 | 0.01 | 0.01 | 99 | 1015.6 |
| 20260510153504 | 76 | 128 | 0.0 | 1.7 | 0.00 | 0.01 | 0.01 | 99 | 1015.6 |
| 20260510153002 | 76 | 354 | 0.9 | 1.7 | 0.00 | 0.01 | 0.01 | 99 | 1015.9 |
| 20260510152458 | 76 | 126 | 0.0 | 0.9 | 0.00 | 0.01 | 0.01 | 99 | 1015.9 |
| 20260510151954 | 76 | 128 | 0.0 | 1.7 | 0.00 | 0.01 | 0.01 | 99 | 1015.6 |
| 20260510151452 | 75 | 128 | 0.0 | 0.9 | 0.00 | 0.01 | 0.01 | 99 | 1015.9 |
| 20260510150948 | 75 | 22 | 0.0 | 0.9 | 0.00 | 0.01 | 0.01 | 99 | 1015.9 |
| 20260510150444 | 74 | 136 | 0.0 | 0.9 | 0.00 | 0.01 | 0.01 | 99 | 1016.3 |
| 20260510145940 | 74 | 77 | 0.9 | 1.7 | 0.00 | 0.01 | 0.01 | 99 | 1015.9 |
| 20260510145436 | 75 | 185 | 0.0 | 0.0 | 0.00 | 0.01 | 0.01 | 99 | 1015.9 |
| 20260510144933 | 74 | 121 | 0.0 | 1.7 | 0.00 | 0.01 | 0.01 | 99 | 1016.3 |
| 20260510144430 | 74 | 124 | 0.0 | 0.9 | 0.00 | 0.01 | 0.01 | 99 | 1015.9 |
| 20260510143925 | 74 | 219 | 0.0 | 0.9 | 0.00 | 0.01 | 0.01 | 99 | 1015.9 |
| 20260510143421 | 74 | 176 | 0.9 | 1.7 | 0.00 | 0.01 | 0.01 | 99 | 1015.9 |
| 20260510142918 | 75 | 122 | 0.0 | 0.9 | 0.00 | 0.01 | 0.01 | 99 | 1015.9 |
| 20260510142415 | 75 | 243 | 0.0 | 1.7 | 0.00 | 0.01 | 0.01 | 99 | 1015.9 |
| 20260510141912 | 75 | 50 | 0.0 | 0.9 | 0.00 | 0.01 | 0.01 | 99 | 1015.9 |
| 20260510141409 | 76 | 260 | 0.0 | 2.6 | 0.00 | 0.01 | 0.01 | 99 | 1015.9 |
| 20260510140906 | 76 | 263 | 0.0 | 1.7 | 0.00 | 0.01 | 0.01 | 99 | 1015.9 |
| 20260510140402 | 76 | 187 | 0.0 | 0.9 | 0.00 | 0.01 | 0.01 | 99 | 1015.9 |
| 20260510135901 | 76 | 177 | 0.0 | 0.0 | 0.00 | 0.01 | 0.01 | 99 | 1015.6 |
| 20260510135357 | 76 | 77 | 0.0 | 0.9 | 0.00 | 0.01 | 0.01 | 99 | 1015.9 |
| 20260510134855 | 76 | 132 | 0.0 | 0.0 | 0.00 | 0.01 | 0.01 | 99 | |
| 20260510134351 | 76 | 95 | 0.0 | 0.0 | 0.00 | 0.01 | 0.01 | 99 | |
| 20260510133847 | 76 | 29 | 0.0 | 0.9 | 0.00 | 0.01 | 0.01 | 99 | |
| 20260510133344 | 76 | 179 | 0.0 | 0.0 | 0.00 | 0.01 | 0.01 | 99 | |
| 20260510132839 | 76 | 229 | 0.0 | 0.0 | 0.00 | 0.01 | 0.01 | 99 | 1015.6 |
| 20260510132338 | 76 | 130 | 0.0 | 0.9 | 0.00 | 0.01 | 0.01 | 99 | 1015.6 |
| 20260510131834 | 76 | 143 | 0.0 | 0.0 | 0.00 | 0.01 | 0.01 | 99 | 1015.6 |
| 20260510131332 | 76 | 77 | 0.9 | 0.9 | 0.00 | 0.01 | 0.01 | 99 | 1015.2 |
| 20260510130828 | 76 | 0 | 0.0 | 0.0 | 0.00 | 0.01 | 0.01 | 99 | 1015.2 |
| 20260510130326 | 75 | 165 | 0.0 | 0.0 | 0.00 | 0.01 | 0.01 | 99 | |
| 20260510125821 | 75 | 91 | 0.0 | 0.9 | 0.00 | 0.01 | 0.01 | 99 | |
| 20260510125318 | 74 | 75 | 0.0 | 0.0 | 0.00 | 0.01 | 0.01 | 99 | |
| 20260510124815 | 74 | 88 | 0.0 | 0.0 | 0.00 | 0.01 | 0.01 | 99 | |
| 20260510124312 | 74 | 121 | 0.0 | 0.0 | 0.00 | 0.01 | 0.01 | 99 | |
| 20260510123807 | 74 | 122 | 0.0 | 0.0 | 0.00 | 0.01 | 0.01 | 99 | |
| 20260510123303 | 74 | 121 | 0.0 | 0.0 | 0.00 | 0.01 | 0.01 | 99 | |
| 20260510122800 | 74 | 120 | 0.0 | 0.0 | 0.00 | 0.01 | 0.01 | 99 | |
| 20260510122256 | 74 | 221 | 0.0 | 0.0 | 0.00 | 0.01 | 0.01 | 99 | |
| 20260510121753 | 74 | 220 | 0.0 | 0.0 | 0.00 | 0.01 | 0.01 | 99 | |
| 20260510121250 | 73 | 226 | 0.0 | 0.0 | 0.00 | 0.01 | 0.01 | 99 | |
| 20260510120747 | 73 | 226 | 0.0 | 0.0 | 0.00 | 0.01 | 0.01 | 99 | 1014.6 |
| 20260510120244 | 73 | 235 | 0.0 | 0.0 | 0.00 | 0.01 | 0.01 | 99 | 1014.6 |
| 20260510115739 | 73 | 235 | 0.0 | 0.0 | 0.00 | 0.01 | 0.01 | 99 | |
| 20260510115237 | 73 | 240 | 0.0 | 0.0 | 0.00 | 0.01 | 0.01 | 99 | |
| 20260510114727 | 73 | 149 | 0.0 | 0.0 | 0.00 | 0.01 | 0.01 | 99 | |
| 20260510114224 | 73 | 136 | 0.0 | 0.0 | 0.00 | 0.01 | 0.01 | 99 | |
| 20260510113719 | 73 | 185 | 0.0 | 0.0 | 0.00 | 0.01 | 0.01 | 99 | |
| 20260510113216 | 72 | 164 | 0.0 | 0.0 | 0.00 | 0.01 | 0.01 | 99 | 1013.9 |
| 20260510112712 | 72 | 189 | 0.0 | 0.0 | 0.00 | 0.01 | 0.01 | 99 | 1013.9 |
| 20260510112210 | 72 | 217 | 0.0 | 0.0 | 0.00 | 0.01 | 0.01 | 99 | |
| 20260510111705 | 72 | 228 | 0.0 | 0.0 | 0.00 | 0.01 | 0.01 | 99 | 1013.5 |
| 20260510111203 | 72 | 229 | 0.0 | 0.0 | 0.00 | 0.01 | 0.01 | 99 | 1013.5 |
| 20260510110656 | 72 | 218 | 0.0 | 0.0 | 0.00 | 0.01 | 0.01 | 99 | |
| 20260510110155 | 72 | 222 | 0.0 | 0.0 | 0.00 | 0.01 | 0.01 | 99 | |
| 20260510105650 | 72 | 229 | 0.0 | 0.0 | 0.00 | 0.01 | 0.01 | 99 | |
| 20260510105150 | 72 | 240 | 0.0 | 0.0 | 0.00 | 0.01 | 0.01 | 99 | 1013.2 |
| 20260510104647 | 72 | 189 | 0.0 | 0.9 | 0.00 | 0.01 | 0.01 | 99 | 1013.2 |
| 20260510104144 | 72 | 187 | 0.0 | 0.0 | 0.00 | 0.01 | 0.01 | 99 | 1012.9 |
| 20260510103640 | 72 | 173 | 0.0 | 0.0 | 0.00 | 0.01 | 0.01 | 99 | 1012.9 |
| 20260510103137 | 72 | 182 | 0.0 | 0.0 | 0.00 | 0.01 | 0.01 | 99 | 1012.9 |
| 20260510102632 | 72 | 182 | 0.0 | 0.0 | 0.00 | 0.01 | 0.01 | 99 | 1012.9 |
| 20260510102129 | 72 | 182 | 0.0 | 0.0 | 0.00 | 0.01 | 0.01 | 99 | 1012.9 |
| 20260510101626 | 72 | 182 | 0.0 | 0.0 | 0.00 | 0.01 | 0.01 | 99 | 1012.5 |
| 20260510101124 | 72 | 182 | 0.0 | 0.0 | 0.00 | 0.01 | 0.01 | 99 | 1012.5 |
| 20260510100620 | 72 | 177 | 0.0 | 0.0 | 0.00 | 0.01 | 0.01 | 99 | 1012.5 |
| 20260510100118 | 72 | 182 | 0.0 | 0.0 | 0.00 | 0.01 | 0.01 | 99 | 1012.5 |
| 20260510095613 | 72 | 137 | 0.0 | 0.0 | 0.00 | 0.01 | 0.01 | 99 | 1012.5 |
| 20260510095113 | 72 | 131 | 0.0 | 0.0 | 0.00 | 0.01 | 0.01 | 99 | 1012.2 |
| 20260510094612 | 72 | 121 | 0.0 | 0.0 | 0.00 | 0.01 | 0.01 | 99 | 1012.9 |
| 20260510094108 | 72 | 327 | 0.0 | 0.0 | 0.00 | 0.01 | 0.01 | 99 | 1012.5 |
| 20260510093605 | 72 | 76 | 0.0 | 0.0 | 0.00 | 0.01 | 0.01 | 99 | 1012.5 |
| 20260510093101 | 72 | 312 | 0.0 | 0.0 | 0.00 | 0.01 | 0.01 | 99 | 1012.5 |
| 20260510092558 | 72 | 185 | 0.0 | 0.0 | 0.00 | 0.01 | 0.01 | 99 | 1012.5 |
| 20260510092058 | 71 | 184 | 0.0 | 0.0 | 0.00 | 0.01 | 0.01 | 99 | 1012.5 |
| 20260510091555 | 71 | 184 | 0.0 | 0.0 | 0.07 | 0.01 | 0.01 | 99 | 1012.2 |
| 20260510091051 | 71 | 171 | 0.0 | 0.0 | 0.07 | 0.01 | 0.01 | 99 | 1012.2 |
| 20260510090548 | 71 | 146 | 0.0 | 0.0 | 0.00 | 0.00 | 0.00 | 99 | 1011.9 |
| 20260510090044 | 72 | 155 | 0.0 | 0.0 | 0.00 | 0.00 | 0.00 | 99 | 1012.2 |
| 20260510085538 | 71 | 171 | 0.0 | 0.0 | 0.00 | 0.00 | 0.00 | 99 | 1012.2 |
| 20260510085035 | 71 | 182 | 0.0 | 0.0 | 0.00 | 0.00 | 0.00 | 99 | 1012.2 |
| 20260510084532 | 71 | 167 | 0.0 | 0.0 | 0.00 | 0.00 | 0.00 | 99 | 1012.2 |
| 20260510084028 | 71 | 159 | 0.0 | 0.0 | 0.00 | 0.00 | 0.00 | 99 | 1012.2 |
| 20260510083524 | 71 | 151 | 0.0 | 0.0 | 0.00 | 0.00 | 0.00 | 99 | 1012.2 |
| 20260510083021 | 71 | 183 | 0.0 | 0.0 | 0.00 | 0.00 | 0.00 | 99 | |
| 20260510075452 | 70 | 183 | 0.0 | 0.0 | 0.00 | 0.00 | 0.00 | 99 | 1011.9 |
| 20260510074948 | 70 | 183 | 0.0 | 0.0 | 0.00 | 0.00 | 0.00 | 99 | 1011.9 |
| 20260510074446 | 70 | 183 | 0.0 | 0.0 | 0.00 | 0.00 | 0.00 | 99 | 1011.9 |
| 20260510073942 | 70 | 183 | 0.0 | 0.0 | 0.00 | 0.00 | 0.00 | 99 | 1011.9 |
| 20260510073437 | 70 | 183 | 0.0 | 0.0 | 0.00 | 0.00 | 0.00 | 99 | 1011.9 |
| 20260510072934 | 70 | 183 | 0.0 | 0.0 | 0.00 | 0.00 | 0.00 | 99 | 1011.9 |
| 20260510072431 | 70 | 165 | 0.0 | 0.0 | 0.00 | 0.00 | 0.00 | 99 | 1011.9 |
| 20260510071926 | 70 | 229 | 0.0 | 0.0 | 0.00 | 0.00 | 0.00 | 99 | 1011.9 |
| 20260510071423 | 70 | 229 | 0.0 | 0.0 | 0.00 | 0.00 | 0.00 | 99 | 1011.9 |
| 20260510070921 | 70 | 229 | 0.0 | 0.0 | 0.00 | 0.00 | 0.00 | 99 | 1011.9 |
| 20260510070419 | 70 | 229 | 0.0 | 0.0 | 0.00 | 0.00 | 0.00 | 99 | 1011.9 |
| 20260510065914 | 70 | 230 | 0.0 | 0.0 | 0.00 | 0.00 | 0.00 | 99 | 1011.9 |
| 20260510065410 | 70 | 230 | 0.0 | 0.0 | 0.00 | 0.00 | 0.00 | 99 | 1011.9 |
| 20260510064907 | 70 | 231 | 0.0 | 0.0 | 0.00 | 0.00 | 0.00 | 99 | 1011.9 |
| 20260510064405 | 71 | 230 | 0.0 | 0.0 | 0.00 | 0.00 | 0.00 | 99 | 1011.9 |
| 20260510063901 | 71 | 245 | 0.0 | 0.0 | 0.00 | 0.00 | 0.00 | 99 | 1011.9 |
| 20260510063357 | 70 | 176 | 0.0 | 0.0 | 0.00 | 0.00 | 0.00 | 99 | 1011.9 |
| 20260510062854 | 70 | 176 | 0.0 | 0.0 | 0.00 | 0.00 | 0.00 | 99 | 1011.9 |
| 20260510062349 | 71 | 176 | 0.0 | 0.0 | 0.00 | 0.00 | 0.00 | 99 | 1011.9 |
| 20260510061845 | 71 | 176 | 0.0 | 0.0 | 0.00 | 0.00 | 0.00 | 99 | 1011.9 |
| 20260510061342 | 71 | 176 | 0.0 | 0.0 | 0.00 | 0.00 | 0.00 | 99 | 1011.9 |
| 20260510060838 | 71 | 176 | 0.0 | 0.0 | 0.00 | 0.00 | 0.00 | 99 | 1011.9 |
| 20260510060335 | 70 | 186 | 0.0 | 0.0 | 0.00 | 0.00 | 0.00 | 99 | 1011.9 |
| 20260510055832 | 70 | 186 | 0.0 | 0.0 | 0.00 | 0.00 | 0.00 | 99 | 1011.9 |
| 20260510055330 | 71 | 186 | 0.0 | 0.0 | 0.00 | 0.00 | 0.00 | 99 | 1011.9 |
| 20260510054825 | 71 | 184 | 0.0 | 0.0 | 0.00 | 0.00 | 0.00 | 99 | 1011.5 |
| 20260510054320 | 71 | 184 | 0.0 | 0.0 | 0.00 | 0.00 | 0.00 | 99 | 1011.5 |
| 20260510053816 | 71 | 182 | 0.0 | 0.0 | 0.00 | 0.00 | 0.00 | 99 | 1011.5 |
| 20260510053311 | 71 | 182 | 0.0 | 0.0 | 0.00 | 0.00 | 0.00 | 99 | 1011.5 |
| 20260510052808 | 71 | 188 | 0.0 | 0.0 | 0.00 | 0.00 | 0.00 | 99 | 1011.5 |
| 20260510052306 | 71 | 187 | 0.0 | 0.0 | 0.00 | 0.00 | 0.00 | 99 | |
| 20260510051800 | 71 | 187 | 0.0 | 0.0 | 0.00 | 0.00 | 0.00 | 99 | |
| 20260510051257 | 71 | 187 | 0.0 | 0.0 | 0.00 | 0.00 | 0.00 | 99 | |
| 20260510050754 | 71 | 188 | 0.0 | 0.0 | 0.00 | 0.00 | 0.00 | 99 | |
| 20260510050251 | 72 | 202 | 0.0 | 0.0 | 0.00 | 0.00 | 0.00 | 99 | 1011.9 |
| 20260510045747 | 72 | 217 | 0.0 | 0.0 | 0.00 | 0.00 | 0.00 | 99 | 1011.9 |
| 20260510045244 | 71 | 187 | 0.0 | 0.0 | 0.00 | 0.00 | 0.00 | 99 | 1011.9 |
| 20260510044741 | 71 | 187 | 0.0 | 0.0 | 0.00 | 0.00 | 0.00 | 99 | 1011.9 |
| 20260510044239 | 71 | 191 | 0.0 | 0.0 | 0.00 | 0.00 | 0.00 | 99 | 1012.2 |
| 20260510043734 | 72 | 211 | 0.0 | 0.0 | 0.00 | 0.00 | 0.00 | 99 | 1012.2 |
| 20260510043231 | 72 | 211 | 0.0 | 0.0 | 0.00 | 0.00 | 0.00 | 99 | 1012.2 |
| 20260510042728 | 72 | 162 | 0.0 | 0.0 | 0.00 | 0.00 | 0.00 | 99 | 1012.2 |
| 20260510042224 | 72 | 185 | 0.0 | 0.0 | 0.00 | 0.00 | 0.00 | 99 | 1012.2 |
| 20260510041721 | 72 | 146 | 0.0 | 0.9 | 0.00 | 0.00 | 0.00 | 1 | 1011.5 |
| 20260510041218 | 72 | 146 | 0.0 | 0.9 | 0.00 | 0.00 | 0.00 | 1 | 1011.5 |
| 20260510040715 | 72 | 185 | 0.0 | 1.7 | 0.00 | 0.00 | 0.00 | 99 | 1011.9 |
| 20260510040212 | 72 | 188 | 0.0 | 0.0 | 0.00 | 1.60 | 1.60 | 99 | 1012.2 |
| 20260510035707 | 72 | 188 | 0.0 | 0.0 | 0.00 | 1.60 | 1.60 | 99 | 1012.2 |
| 20260510035203 | 72 | 236 | 0.0 | 0.0 | 0.00 | 1.60 | 1.60 | 99 | 1012.5 |
| 20260510034659 | 72 | 236 | 0.0 | 0.0 | 0.00 | 1.60 | 1.60 | 99 | 1012.5 |
| 20260510034157 | 72 | 167 | 0.0 | 0.0 | 0.00 | 1.60 | 1.60 | 99 | 1012.5 |
| 20260510033653 | 71 | 202 | 0.0 | 0.0 | 0.00 | 1.60 | 1.60 | 99 | 1012.9 |
| 20260510033151 | 71 | 217 | 0.0 | 0.0 | 0.00 | 1.60 | 1.60 | 99 | 1012.5 |
| 20260510032647 | 71 | 217 | 0.0 | 0.0 | 0.00 | 1.60 | 1.60 | 99 | 1012.5 |
| 20260510032143 | 71 | 184 | 0.0 | 0.0 | 0.00 | 1.60 | 1.60 | 99 | 1012.9 |
| 20260510031637 | 71 | 184 | 0.0 | 0.0 | 0.00 | 1.60 | 1.60 | 99 | 1012.5 |
| 20260510031134 | 71 | 184 | 0.0 | 0.0 | 0.00 | 1.60 | 1.60 | 99 | 1012.5 |
| 20260510030629 | 72 | 181 | 0.0 | 0.0 | 0.00 | 1.60 | 1.60 | 99 | 1012.9 |
| 20260510030127 | 72 | 181 | 0.0 | 0.0 | 0.00 | 1.60 | 1.60 | 99 | 1012.9 |
| 20260510025624 | 72 | 215 | 0.0 | 0.0 | 0.00 | 1.60 | 1.60 | 99 | 1012.9 |
| 20260510025121 | 72 | 186 | 0.0 | 0.0 | 0.00 | 1.60 | 1.60 | 99 | 1012.9 |
| 20260510024618 | 72 | 185 | 0.0 | 0.0 | 0.00 | 1.60 | 1.60 | 99 | 1012.9 |
| 20260510024114 | 72 | 206 | 0.0 | 0.0 | 0.00 | 1.60 | 1.60 | 1 | 1012.5 |
| 20260510023610 | 72 | 206 | 0.0 | 0.0 | 0.00 | 1.60 | 1.60 | 1 | 1012.5 |
| 20260510023108 | 72 | 210 | 0.0 | 0.0 | 0.00 | 1.60 | 1.60 | 1 | 1012.5 |
| 20260510022607 | 72 | 210 | 0.0 | 0.0 | 0.00 | 1.60 | 1.60 | 1 | 1012.5 |
| 20260510022102 | 72 | 211 | 0.0 | 0.0 | 0.00 | 1.60 | 1.60 | 1 | 1012.2 |
| 20260510021559 | 72 | 211 | 0.0 | 0.0 | 0.00 | 1.60 | 1.60 | 1 | 1012.2 |
| 20260510021056 | 72 | 217 | 0.0 | 0.0 | 0.00 | 1.60 | 1.60 | 1 | 1012.2 |
| 20260510020550 | 72 | 185 | 0.0 | 0.0 | 0.00 | 1.60 | 1.60 | 1 | 1012.2 |
| 20260510020046 | 72 | 177 | 0.0 | 0.0 | 0.00 | 1.60 | 1.60 | 1 | 1011.9 |
| 20260510015542 | 72 | 173 | 0.0 | 0.9 | 0.00 | 1.60 | 1.60 | 1 | 1011.9 |
| 20260510015038 | 72 | 173 | 0.0 | 0.9 | 0.00 | 1.60 | 1.60 | 1 | 1011.9 |
| 20260510014534 | 72 | 184 | 0.0 | 0.9 | 0.00 | 1.60 | 1.60 | 1 | 1011.9 |
| 20260510014032 | 72 | 184 | 0.0 | 0.9 | 0.00 | 1.60 | 1.60 | 1 | 1011.9 |
| 20260510013526 | 72 | 296 | 0.0 | 1.7 | 0.00 | 1.60 | 1.60 | 1 | 1011.5 |
| 20260510013022 | 72 | 296 | 0.0 | 1.7 | 0.00 | 1.60 | 1.60 | 1 | 1011.5 |
| 20260510012516 | 72 | 248 | 0.0 | 0.0 | 0.00 | 1.60 | 1.60 | 1 | 1011.5 |
| 20260510012013 | 73 | 230 | 0.0 | 1.7 | 0.00 | 1.60 | 1.60 | 1 | 1011.5 |
| 20260510011507 | 73 | 230 | 0.0 | 1.7 | 0.00 | 1.60 | 1.60 | 1 | 1011.5 |
| 20260510011003 | 73 | 182 | 0.0 | 0.0 | 0.00 | 1.60 | 1.60 | 1 | 1011.5 |
| 20260510010500 | 73 | 182 | 0.0 | 0.0 | 0.00 | 1.60 | 1.60 | 1 | 1011.5 |
| 20260510005957 | 73 | 233 | 0.0 | 0.0 | 0.00 | 1.60 | 1.60 | 1 | 1011.5 |
| 20260510005453 | 73 | 233 | 0.0 | 0.0 | 0.00 | 1.60 | 1.60 | 1 | 1011.5 |
| 20260510004951 | 73 | 188 | 0.0 | 1.7 | 0.00 | 1.60 | 1.60 | 1 | 1011.5 |
| 20260510004448 | 73 | 188 | 0.0 | 1.7 | 0.00 | 1.60 | 1.60 | 1 | 1011.5 |
| 20260510003946 | 73 | 225 | 0.9 | 0.9 | 0.00 | 1.60 | 1.60 | 1 | 1011.9 |
| 20260510003442 | 73 | 186 | 0.0 | 0.0 | 0.00 | 1.60 | 1.60 | 1 | 1011.9 |
| 20260510002943 | 73 | 186 | 0.0 | 0.0 | 0.00 | 1.60 | 1.60 | 1 | 1011.9 |
| 20260510002439 | 73 | 221 | 0.0 | 0.0 | 0.00 | 1.60 | 1.60 | 1 | 1011.9 |
| 20260510001936 | 73 | 221 | 0.0 | 0.0 | 0.00 | 1.60 | 1.60 | 1 | 1011.9 |
| 20260510001433 | 73 | 183 | 0.0 | 0.0 | 0.00 | 1.60 | 1.60 | 1 | 1011.5 |
| 20260510000931 | 73 | 183 | 0.0 | 0.0 | 0.00 | 1.60 | 1.60 | 1 | 1011.5 |
| 20260510000427 | 73 | 167 | 0.0 | 0.9 | 0.00 | 1.60 | 1.60 | 1 | 1011.5 |
| 20260509235923 | 73 | 167 | 0.0 | 0.9 | 0.00 | 1.60 | 1.60 | 1 | 1011.5 |
| 20260509235420 | 73 | 226 | 0.0 | 0.9 | 0.00 | 1.60 | 1.60 | 1 | 1011.9 |
| 20260509234916 | 73 | 163 | 0.0 | 0.9 | 0.00 | 1.60 | 1.60 | 1 | 1011.9 |
| 20260509234413 | 73 | 240 | 0.0 | 0.9 | 0.00 | 1.60 | 1.60 | 1 | 1011.5 |
| 20260509233911 | 73 | 185 | 0.0 | 0.0 | 0.07 | 1.60 | 1.60 | 99 | 1011.2 |
| 20260509233409 | 73 | 262 | 0.0 | 0.9 | 0.19 | 1.60 | 1.60 | 99 | 1011.5 |
| 20260509232904 | 73 | 181 | 0.0 | 0.0 | 0.00 | 1.57 | 1.57 | 99 | 1011.9 |
| 20260509232403 | 73 | 181 | 0.0 | 0.0 | 0.00 | 1.57 | 1.57 | 99 | 1011.9 |
| 20260509231858 | 73 | 188 | 0.0 | 0.0 | 0.00 | 1.57 | 1.57 | 99 | 1011.9 |
| 20260509231355 | 73 | 188 | 0.0 | 0.0 | 0.05 | 1.57 | 1.57 | 99 | 1012.2 |
| 20260509230853 | 73 | 77 | 0.0 | 0.0 | 0.05 | 1.57 | 1.57 | 99 | 1011.9 |
| 20260509230350 | 73 | 237 | 0.0 | 0.9 | 0.00 | 1.56 | 1.56 | 99 | 1011.9 |
| 20260509225845 | 73 | 237 | 0.0 | 0.9 | 0.00 | 1.56 | 1.56 | 99 | 1011.9 |
| 20260509225342 | 73 | 182 | 0.0 | 0.0 | 0.00 | 1.56 | 1.56 | 99 | 1011.5 |
| 20260509224838 | 73 | 182 | 0.0 | 0.0 | 0.00 | 1.56 | 1.56 | 99 | 1011.5 |
| 20260509224334 | 73 | 258 | 0.9 | 1.7 | 0.00 | 1.56 | 1.56 | 99 | 1011.5 |
| 20260509223831 | 73 | 258 | 0.9 | 1.7 | 0.00 | 1.56 | 1.56 | 99 | 1011.5 |
| 20260509223328 | 73 | 189 | 0.0 | 0.0 | 0.00 | 1.56 | 1.56 | 99 | 1011.9 |
| 20260509222825 | 73 | 216 | 0.0 | 0.0 | 0.00 | 1.56 | 1.56 | 99 | 1011.2 |
| 20260509222320 | 73 | 199 | 0.0 | 0.0 | 0.07 | 1.56 | 1.56 | 99 | 1010.8 |
| 20260509221815 | 73 | 186 | 0.0 | 0.0 | 0.00 | 1.55 | 1.55 | 99 | 1010.8 |
| 20260509221314 | 73 | 186 | 0.0 | 0.0 | 0.00 | 1.55 | 1.55 | 99 | 1010.8 |
| 20260509220808 | 73 | 144 | 0.0 | 0.0 | 0.00 | 1.55 | 1.55 | 99 | 1010.8 |
| 20260509220305 | 73 | 144 | 0.0 | 0.0 | 0.00 | 1.55 | 1.55 | 99 | 1010.8 |
| 20260509215800 | 73 | 212 | 0.0 | 0.0 | 0.05 | 1.55 | 1.55 | 99 | 1011.2 |
| 20260509215257 | 73 | 247 | 0.0 | 0.0 | 0.00 | 1.54 | 1.54 | 99 | 1011.2 |
| 20260509214754 | 73 | 247 | 0.0 | 0.0 | 0.00 | 1.54 | 1.54 | 99 | 1011.2 |
| 20260509214251 | 73 | 233 | 0.0 | 0.9 | 0.00 | 1.54 | 1.54 | 99 | 1011.2 |
| 20260509213748 | 73 | 135 | 0.0 | 0.0 | 0.00 | 1.54 | 1.54 | 99 | 1011.2 |
| 20260509213243 | 73 | 179 | 0.0 | 1.7 | 0.00 | 1.54 | 1.54 | 99 | 1011.2 |
| 20260509212741 | 73 | 179 | 0.0 | 1.7 | 0.00 | 1.54 | 1.54 | 99 | 1011.2 |
| 20260509212239 | 73 | 215 | 1.7 | 2.6 | 0.00 | 1.54 | 1.54 | 99 | 1010.8 |
| 20260509211734 | 73 | 215 | 1.7 | 2.6 | 0.00 | 1.54 | 1.54 | 99 | 1010.8 |
| 20260509211230 | 73 | 169 | 0.0 | 0.9 | 0.00 | 1.54 | 1.54 | 99 | 1010.5 |
| 20260509210727 | 72 | 267 | 0.0 | 0.9 | 0.00 | 1.54 | 1.54 | 99 | 1010.5 |
| 20260509210225 | 72 | 267 | 0.0 | 0.9 | 0.00 | 1.54 | 1.54 | 99 | 1010.5 |
| 20260509205724 | 72 | 228 | 0.0 | 0.9 | 0.00 | 1.54 | 1.54 | 99 | 1010.5 |
| 20260509205224 | 72 | 188 | 0.0 | 0.9 | 0.00 | 1.54 | 1.54 | 99 | 1010.5 |
| 20260509204720 | 72 | 138 | 0.0 | 1.7 | 0.00 | 1.54 | 1.54 | 99 | 1010.8 |
| 20260509204217 | 72 | 138 | 0.0 | 1.7 | 0.00 | 1.54 | 1.54 | 99 | 1010.8 |
| 20260509203713 | 72 | 189 | 0.0 | 1.7 | 0.00 | 1.54 | 1.54 | 99 | 1010.8 |
| 20260509203211 | 72 | 215 | 0.0 | 1.7 | 0.00 | 1.54 | 1.54 | 99 | 1011.2 |
| 20260509202706 | 72 | 215 | 0.0 | 1.7 | 0.00 | 1.54 | 1.54 | 99 | 1011.2 |
| 20260509202201 | 72 | 147 | 0.0 | 0.0 | 0.07 | 1.54 | 1.54 | 99 | 1011.5 |
| 20260509201657 | 72 | 147 | 0.0 | 0.0 | 0.07 | 1.54 | 1.54 | 99 | 1011.5 |
| 20260509201154 | 72 | 188 | 0.0 | 0.0 | 0.07 | 1.54 | 1.54 | 99 | 1011.9 |
| 20260509200650 | 72 | 188 | 0.0 | 0.0 | 0.07 | 1.53 | 1.53 | 99 | 1011.9 |
| 20260509200145 | 72 | 188 | 0.0 | 0.0 | 0.00 | 1.52 | 1.52 | 99 | 1011.9 |
| 20260509195641 | 72 | 188 | 0.0 | 0.0 | 0.00 | 1.52 | 1.52 | 99 | 1011.9 |
| 20260509195137 | 72 | 181 | 0.0 | 0.0 | 0.12 | 1.52 | 1.52 | 99 | 1011.9 |
| 20260509194631 | 71 | 226 | 0.0 | 0.0 | 0.05 | 1.50 | 1.50 | 99 | 1011.9 |
| 20260509194128 | 71 | 226 | 0.0 | 0.0 | 0.05 | 1.50 | 1.50 | 99 | 1011.9 |
| 20260509193624 | 72 | 74 | 0.0 | 0.0 | 0.12 | 1.49 | 1.49 | 99 | 1012.2 |
| 20260509193120 | 72 | 74 | 0.0 | 0.0 | 0.12 | 1.49 | 1.49 | 99 | 1012.2 |
| 20260509192617 | 72 | 160 | 0.0 | 0.0 | 0.05 | 1.48 | 1.48 | 99 | 1012.5 |
| 20260509192112 | 72 | 178 | 0.0 | 0.0 | 0.00 | 1.47 | 1.47 | 99 | 1012.5 |
| 20260509191606 | 71 | 215 | 0.0 | 0.0 | 0.07 | 1.47 | 1.47 | 99 | 1012.5 |
| 20260509191103 | 71 | 184 | 0.0 | 0.0 | 0.00 | 1.46 | 1.46 | 99 | 1012.5 |
| 20260509190600 | 71 | 184 | 0.0 | 0.0 | 0.00 | 1.46 | 1.46 | 99 | 1012.5 |
| 20260509190057 | 71 | 157 | 0.0 | 0.9 | 0.00 | 1.46 | 1.46 | 99 | 1012.2 |
| 20260509185555 | 71 | 132 | 0.0 | 0.9 | 0.05 | 1.46 | 1.46 | 99 | 1012.2 |
| 20260509185050 | 71 | 236 | 0.0 | 0.9 | 0.05 | 1.46 | 1.46 | 99 | 1012.2 |
| 20260509184549 | 71 | 181 | 0.0 | 0.9 | 0.00 | 1.45 | 1.45 | 99 | 1012.2 |
| 20260509184045 | 71 | 252 | 0.0 | 0.9 | 0.12 | 1.45 | 1.45 | 99 | 1011.9 |
| 20260509183540 | 71 | 234 | 0.0 | 0.0 | 0.19 | 1.45 | 1.45 | 99 | 1011.9 |
| 20260509183037 | 71 | 246 | 0.9 | 0.9 | 0.07 | 1.43 | 1.43 | 99 | 1011.9 |
| 20260509182533 | 71 | 234 | 0.0 | 0.9 | 0.05 | 1.42 | 1.42 | 99 | 1012.2 |
| 20260509182030 | 71 | 234 | 0.0 | 0.9 | 0.05 | 1.42 | 1.42 | 99 | 1012.2 |
| 20260509181529 | 71 | 81 | 0.0 | 2.6 | 0.00 | 1.41 | 1.41 | 99 | 1012.2 |
| 20260509181026 | 71 | 81 | 0.0 | 2.6 | 0.00 | 1.41 | 1.41 | 99 | 1012.2 |